Location: Caltech
(34.1382°N, 118.1253°W)
Time: 05:11:32
(UTC-07:00)

ERBS - Visible Passes

Search period start: 22 September 2014 00:00
Search period end: 02 October 2014 00:00
Orbit: 464 x 490 km, 57.0° (Epoch: 22 September)

Date Brightness Start Highest point End Pass type
(mag) Time Alt. Az. Time Alt. Az. Time Alt. Az.
25 Sep 5.3 06:02:50 10° SSE 06:05:19 18° ESE 06:07:47 10° ENE visible
26 Sep 5.4 05:34:44 10° SSE 05:36:43 14° ESE 05:38:42 10° E visible
27 Sep 5.5 05:06:54 10° SE 05:08:06 11° ESE 05:09:18 10° E visible
28 Sep 2.6 06:13:01 10° SW 06:16:34 59° NW 06:20:09 10° NNE visible
29 Sep 2.4 05:45:07 16° SW 05:47:52 75° NW 05:51:29 10° NE visible
30 Sep 2.4 05:18:18 50° SSW 05:19:09 86° SE 05:22:47 10° NE visible
01 Oct 3.4 04:51:18 47° ENE 04:51:18 47° ENE 04:54:02 10° NE visible
